CST,Max TemperatureF,Mean TemperatureF,Min TemperatureF,Max Dew PointF,MeanDew PointF,Min DewpointF,Max Humidity, Mean Humidity, Min Humidity, Max Sea Level PressureIn, Mean Sea Level PressureIn, Min Sea Level PressureIn, Max VisibilityMiles, Mean VisibilityMiles, Min VisibilityMiles, Max Wind SpeedMPH, Mean Wind SpeedMPH, Max Gust SpeedMPH,PrecipitationIn, CloudCover, Events, WindDirDegrees
2010-11-1,57,45,32,37,31,26,82,62,41,30.48,30.44,30.38,10,10,10,12,5,14,0.00,2,,76
2010-11-2,54,42,30,31,28,25,85,59,32,30.51,30.42,30.27,10,10,8,13,3,16,0.00,0,Fog,130
2010-11-3,61,47,33,36,31,26,82,61,39,30.24,30.02,29.88,10,10,10,16,9,22,T,3,Rain,259
2010-11-4,52,44,36,36,33,25,76,63,50,30.01,29.92,29.87,10,9,3,26,13,31,0.10,6,Rain,345
2010-11-5,42,34,26,24,20,18,75,57,38,30.21,30.10,30.01,10,10,10,18,8,23,0.00,1,,346
2010-11-6,48,35,22,24,20,17,81,56,31,30.38,30.32,30.24,10,10,9,13,5,16,0.00,3,,196
2010-11-7,61,47,33,33,27,22,67,48,29,30.31,30.17,30.06,10,10,7,16,7,18,0.00,3,,187
2010-11-8,69,53,37,37,34,30,76,52,28,30.04,29.94,29.83,10,10,10,20,7,23,0.00,1,,162
2010-11-9,72,56,39,44,39,32,79,59,38,30.01,29.95,29.90,10,10,10,17,6,20,0.00,0,,151
2010-11-10,70,59,47,48,43,38,71,55,39,30.14,30.06,30.02,10,10,10,23,10,28,0.00,3,,156
2010-11-11,58,54,49,47,41,36,83,67,50,30.42,30.32,30.14,10,9,6,15,6,20,T,7,,292
2010-11-12,59,53,47,43,39,35,76,65,53,30.41,30.31,30.17,10,10,9,20,11,24,0.10,7,Rain,56
2010-11-13,54,47,39,48,39,31,83,77,70,30.12,29.90,29.84,10,9,3,29,15,37,0.05,8,Rain,186
2010-11-14,47,42,36,33,30,27,76,65,53,29.91,29.87,29.85,10,10,9,23,13,31,0.01,7,Rain,248
2010-11-15,52,41,29,39,34,26,92,73,54,29.89,29.87,29.85,10,8,5,20,7,26,0.07,4,Rain,174
2010-11-16,55,46,36,38,33,30,85,65,45,29.83,29.74,29.64,10,9,7,12,4,13,0.03,5,Rain,157
2010-11-17,46,42,37,38,35,28,85,75,64,30.25,30.04,29.77,10,6,2,15,7,20,T,8,Rain,306
2010-11-18,41,36,30,29,25,22,75,62,48,30.38,30.32,30.25,10,10,10,15,6,18,0.00,7,,300
2010-11-19,49,39,28,34,29,22,89,72,54,30.26,30.10,29.99,10,8,4,26,11,31,0.00,6,,212
2010-11-20,43,37,30,30,25,18,89,66,43,30.33,30.24,30.15,10,9,6,20,10,24,0.00,6,,54
2010-11-21,58,49,39,52,45,30,89,80,70,30.12,29.92,29.80,10,5,2,25,14,30,T,8,Rain,166
2010-11-22,69,52,35,58,47,26,86,77,68,29.94,29.77,29.58,10,7,2,25,13,36,0.48,8,Rain-Thunderstorm,228
2010-11-23,35,29,22,25,17,11,75,61,47,30.35,30.18,29.94,10,10,10,23,10,31,0.00,1,,300
2010-11-24,38,31,24,36,26,15,92,77,61,30.33,30.01,29.72,10,8,2,24,12,32,0.09,8,Rain,124
2010-11-25,37,28,18,36,24,6,100,75,50,29.92,29.80,29.69,10,7,1,24,12,33,T,6,,280
2010-11-26,33,25,17,20,13,7,69,56,43,29.95,29.91,29.85,10,10,10,26,14,35,0.00,3,,264
2010-11-27,37,29,20,17,15,12,74,59,44,30.19,30.11,29.94,10,10,10,16,8,21,0.00,2,,261
2010-11-28,48,36,23,32,25,15,81,66,50,30.22,30.12,30.03,10,10,8,23,12,31,0.00,5,,158
2010-11-29,49,42,35,45,36,27,89,75,60,30.03,29.82,29.60,10,8,2,25,14,32,0.40,8,Rain,157
2010-11-30,49,37,24,45,30,15,89,76,63,29.85,29.67,29.55,10,6,2,24,15,32,T,8,Rain-Snow,235